UAL0818 CYXU-KSYR

Flight info

Callsign UAL0818
Flight time N/A
Altitude 29000
Route DERLO Q822 HOZIR DCT SYR
Aircraft B738/M-SDE2E3FGHIRWXY/LB1

Departure

Time 2026-04-30 22:49
Airport London International Airport (CYXU)

Arrival

Time N/A
Airport Syracuse Hancock International Airport (KSYR)
Time Latitude Longitude Altitude Speed Heading
2026-04-30 22:32 43.02889 -81.14808 905 ft 0 kts 274°
2026-04-30 22:41 43.02888 -81.14797 905 ft 2 kts 274°
2026-04-30 22:41 43.02897 -81.14757 905 ft 2 kts 215°
2026-04-30 22:42 43.02923 -81.14752 905 ft 0 kts 137°
2026-04-30 22:45 43.02707 -81.14494 905 ft 14 kts 139°
2026-04-30 22:45 43.02557 -81.14313 909 ft 12 kts 139°
2026-04-30 22:46 43.02409 -81.14134 912 ft 16 kts 139°
2026-04-30 22:47 43.02337 -81.13931 916 ft 0 kts 50°
2026-04-30 22:48 43.02383 -81.13866 917 ft 12 kts 40°
2026-04-30 22:49 43.03648 -81.15327 963 ft 174 kts 316°
2026-04-30 22:49 43.07063 -81.17770 3403 ft 190 kts 341°
2026-04-30 22:50 43.12774 -81.14395 5543 ft 281 kts 79°
2026-04-30 22:51 43.12494 -81.08622 7423 ft 294 kts 95°
2026-04-30 22:51 43.12379 -81.02639 9213 ft 307 kts 94°
2026-04-30 22:52 43.12348 -80.99589 10131 ft 311 kts 94°
2026-04-30 22:52 43.12294 -80.93052 11065 ft 351 kts 94°
2026-04-30 22:53 43.12246 -80.85614 11672 ft 395 kts 94°
2026-04-30 22:53 43.12201 -80.77383 12726 ft 418 kts 94°
2026-04-30 22:53 43.12178 -80.73196 13468 ft 422 kts 94°
2026-04-30 22:54 43.12124 -80.64693 14774 ft 433 kts 95°
2026-04-30 22:55 43.12025 -80.51566 16643 ft 446 kts 95°
2026-04-30 22:55 43.11948 -80.42716 17787 ft 454 kts 95°
2026-04-30 22:56 43.11863 -80.33733 18872 ft 461 kts 96°
2026-04-30 22:56 43.11718 -80.20053 20345 ft 471 kts 96°
2026-04-30 22:57 43.11611 -80.10786 21213 ft 479 kts 96°
2026-04-30 22:57 43.11498 -80.01405 22067 ft 484 kts 96°
2026-04-30 22:58 43.11376 -79.91913 22911 ft 489 kts 97°
2026-04-30 22:59 43.11174 -79.77418 23981 ft 498 kts 97°
2026-04-30 22:59 43.10944 -79.62687 24988 ft 506 kts 97°